Weather History for KMAN - March, 2014

Change the Weather History Date:

Saturday, March 22, 2014

  Actual Average (KBOI) Record (KBOI)
Temperature  
Mean Temperature 40 °F 46 °F  
Max Temperature 50 °F 56 °F 71 °F (1960)
Min Temperature 30 °F 36 °F 12 °F (1898)
Degree Days  
Heating Degree Days 25 19  
Month to date heating degree days 474  
Since 1 July heating degree days 4633  
Cooling Degree Days 0 0  
Month to date cooling degree days 0  
Year to date cooling degree days 0  
Moisture  
Dew Point 17 °F    
Average Humidity 45    
Maximum Humidity 64    
Minimum Humidity 22    
Precipitation  
Precipitation 0.00 in 0.05 in 0.41 in (1962)
Month to date precipitation 0.97  
Year to date precipitation 3.20  
Snow  
Snow 0.00 in 0.00 in 1.20 in (1953)
Month to date snowfall 1.0  
Since 1 July snowfall 18.6  
Snow Depth -    
Sea Level Pressure  
Sea Level Pressure 30.20 in    
Wind  
Wind Speed 7 mph (NW)    
Max Wind Speed 12 mph    
Max Gust Speed 20 mph    
Visibility 10 miles    
Events      
T = Trace of Precipitation, MM = Missing Value Source: NWS Daily Summary

Daily Weather History Graph

Daily Weather History Graph

Search for Another Location

Airport or City:

Trip Planner

Search our weather history database for the weather conditions in past years. The results will help you decide how hot, cold, wet, or windy it might be!

Date:

Astronomy

Mar. 22, 2014 Rise Set
Actual Time 7:45 AM MDT 8:00 PM MDT
Civil Twilight 7:16 AM MDT 8:29 PM MDT
Nautical Twilight 6:43 AM MDT 9:03 PM MDT
Astronomical Twilight 6:08 AM MDT 9:37 PM MDT
Moon 1:33 AM MDT (3/22) 11:24 AM MDT (3/22)
Length of Visible Light 13h 12m
Length of Day
12h 15m
Waning Gibbous, 65% of the Moon is Illuminated
Mar 22
Waning Gibbous
Mar 23
Last Quarter
Mar 30
New
Apr 7
First Quarter
Apr 15
Full

Hourly Weather History & Observations

Time (MDT) Temp. Windchill Dew Point Humidity Pressure Visibility Wind Dir Wind Speed Gust Speed Precip Events Conditions
12:15 AM 35.6 °F 29.2 °F 15.8 °F 44% 30.12 in 10.0 mi WNW 8.1 mph - N/A   Clear
12:35 AM 35.6 °F 28.6 °F 15.8 °F 44% 30.12 in 10.0 mi WNW 9.2 mph - N/A   Clear
12:55 AM 33.8 °F 26.4 °F 17.6 °F 52% 30.12 in 10.0 mi WNW 9.2 mph - N/A   Clear
1:15 AM 35.6 °F 28.6 °F 17.6 °F 48% 30.13 in 10.0 mi WNW 9.2 mph - N/A   Clear
1:35 AM 33.8 °F 27.7 °F 17.6 °F 52% 30.13 in 10.0 mi NW 6.9 mph - N/A   Clear
1:55 AM 33.8 °F 25.8 °F 17.6 °F 52% 30.13 in 10.0 mi WNW 10.4 mph - N/A   Clear
2:15 AM 32.0 °F 24.8 °F 19.4 °F 60% 30.14 in 10.0 mi WNW 8.1 mph - N/A   Clear
2:35 AM 33.8 °F 27.7 °F 19.4 °F 56% 30.14 in 10.0 mi NW 6.9 mph - N/A   Clear
2:55 AM 32.0 °F 28.7 °F 19.4 °F 60% 30.16 in 10.0 mi NW 3.5 mph - N/A   Clear
3:15 AM 32.0 °F 27.5 °F 19.4 °F 60% 30.16 in 10.0 mi WSW 4.6 mph - N/A   Clear
3:35 AM 32.0 °F 25.6 °F 21.2 °F 64% 30.16 in 10.0 mi WNW 6.9 mph - N/A   Clear
3:55 AM 33.8 °F 26.4 °F 19.4 °F 56% 30.16 in 10.0 mi NW 9.2 mph - N/A   Clear
4:15 AM 32.0 °F 24.8 °F 19.4 °F 60% 30.16 in 10.0 mi WNW 8.1 mph - N/A   Clear
4:35 AM 32.0 °F 25.6 °F 19.4 °F 60% 30.16 in 10.0 mi NW 6.9 mph - N/A   Clear
4:55 AM 32.0 °F 24.2 °F 19.4 °F 60% 30.17 in 10.0 mi NW 9.2 mph - N/A   Clear
5:15 AM 32.0 °F 23.6 °F 19.4 °F 60% 30.17 in 10.0 mi WNW 10.4 mph - N/A   Clear
5:35 AM 32.0 °F 24.2 °F 19.4 °F 60% 30.18 in 10.0 mi WNW 9.2 mph - N/A   Clear
5:55 AM 32.0 °F 24.8 °F 19.4 °F 60% 30.19 in 10.0 mi NW 8.1 mph - N/A   Clear
6:15 AM 32.0 °F 25.6 °F 19.4 °F 60% 30.19 in 10.0 mi NW 6.9 mph - N/A   Clear
6:35 AM 32.0 °F 24.2 °F 19.4 °F 60% 30.20 in 10.0 mi NW 9.2 mph - N/A   Clear
6:55 AM 30.2 °F 24.3 °F 19.4 °F 64% 30.21 in 10.0 mi NW 5.8 mph - N/A   Clear
7:15 AM 30.2 °F 24.3 °F 19.4 °F 64% 30.22 in 10.0 mi NW 5.8 mph - N/A   Clear
7:35 AM 30.2 °F 23.4 °F 19.4 °F 64% 30.23 in 10.0 mi NW 6.9 mph - N/A   Clear
7:55 AM 30.2 °F 23.4 °F 19.4 °F 64% 30.23 in 10.0 mi NW 6.9 mph - N/A   Clear
8:15 AM 30.2 °F 22.6 °F 19.4 °F 64% 30.24 in 10.0 mi NW 8.1 mph - N/A   Clear
8:35 AM 30.2 °F 24.3 °F 19.4 °F 64% 30.25 in 10.0 mi NW 5.8 mph - N/A   Clear
8:55 AM 32.0 °F 24.8 °F 19.4 °F 60% 30.26 in 10.0 mi NNW 8.1 mph - N/A   Clear
9:15 AM 32.0 °F 24.8 °F 19.4 °F 60% 30.26 in 10.0 mi NW 8.1 mph - N/A   Clear
9:35 AM 33.8 °F 25.8 °F 19.4 °F 56% 30.26 in 10.0 mi NW 10.4 mph - N/A   Clear
9:55 AM 35.6 °F 28.6 °F 19.4 °F 52% 30.26 in 10.0 mi NW 9.2 mph - N/A   Clear
10:15 AM 35.6 °F 28.6 °F 19.4 °F 52% 30.27 in 10.0 mi NW 9.2 mph - N/A   Clear
10:35 AM 37.4 °F 30.3 °F 21.2 °F 52% 30.27 in 10.0 mi WNW 10.4 mph - N/A   Clear
10:55 AM 39.2 °F 33.0 °F 21.2 °F 49% 30.27 in 10.0 mi NNW 9.2 mph - N/A   Clear
11:15 AM 39.2 °F 33.6 °F 19.4 °F 45% 30.27 in 10.0 mi NNW 8.1 mph - N/A   Clear
11:35 AM 41.0 °F 35.8 °F 19.4 °F 42% 30.27 in 10.0 mi NW 8.1 mph - N/A   Clear
11:55 AM 41.0 °F 35.8 °F 17.6 °F 39% 30.27 in 10.0 mi NW 8.1 mph - N/A   Clear
12:15 PM 42.8 °F 37.5 °F 19.4 °F 39% 30.27 in 10.0 mi NW 9.2 mph - N/A   Clear
12:35 PM 44.6 °F 39.7 °F 17.6 °F 34% 30.27 in 10.0 mi NNW 9.2 mph - N/A   Clear
12:55 PM 44.6 °F 41.4 °F 17.6 °F 34% 30.27 in 10.0 mi North 5.8 mph - N/A   Clear
1:15 PM 44.6 °F 38.8 °F 17.6 °F 34% 30.26 in 10.0 mi NNW 11.5 mph 19.6 mph N/A   Clear
1:35 PM 44.6 °F 42.2 °F 17.6 °F 34% 30.26 in 10.0 mi NW 4.6 mph - N/A   Clear
1:55 PM 46.4 °F 44.3 °F 17.6 °F 32% 30.26 in 10.0 mi NNE 4.6 mph - N/A   Clear
2:15 PM 46.4 °F 43.5 °F 15.8 °F 29% 30.25 in 10.0 mi West 5.8 mph - N/A   Clear
2:35 PM 46.4 °F 41.9 °F 15.8 °F 29% 30.25 in 10.0 mi NW 9.2 mph - N/A   Clear
2:55 PM 46.4 °F 44.3 °F 15.8 °F 29% 30.24 in 10.0 mi North 4.6 mph - N/A   Clear
3:15 PM 48.2 °F - 15.8 °F 27% 30.23 in 10.0 mi NW 4.6 mph - N/A   Clear
3:35 PM 48.2 °F - 15.8 °F 27% 30.22 in 10.0 mi North 10.4 mph - N/A   Clear
3:55 PM 48.2 °F - 17.6 °F 30% 30.22 in 10.0 mi NW 5.8 mph - N/A   Clear
4:15 PM 48.2 °F - 15.8 °F 27% 30.21 in 10.0 mi NNW 6.9 mph - N/A   Clear
4:35 PM 50.0 °F - 15.8 °F 26% 30.20 in 10.0 mi WNW 4.6 mph - N/A   Clear
4:55 PM 50.0 °F - 14.0 °F 24% 30.20 in 10.0 mi Calm Calm - N/A   Clear
5:15 PM 50.0 °F - 14.0 °F 24% 30.19 in 10.0 mi North 5.8 mph - N/A   Clear
5:35 PM 50.0 °F - 14.0 °F 24% 30.19 in 10.0 mi NNE 3.5 mph - N/A   Clear
5:55 PM 50.0 °F - 14.0 °F 24% 30.18 in 10.0 mi NNW 5.8 mph - N/A   Clear
6:15 PM 50.0 °F - 14.0 °F 24% 30.18 in 10.0 mi NNE 4.6 mph - N/A   Clear
6:35 PM 50.0 °F - 15.8 °F 26% 30.18 in 10.0 mi North 4.6 mph - N/A   Clear
6:55 PM 48.2 °F - 15.8 °F 27% 30.17 in 10.0 mi NW 3.5 mph - N/A   Clear
7:15 PM 48.2 °F - 10.4 °F 22% 30.17 in 10.0 mi NNW 3.5 mph - N/A   Clear
7:35 PM 48.2 °F - 10.4 °F 22% 30.16 in 10.0 mi ENE 4.6 mph - N/A   Clear
7:55 PM 48.2 °F - 10.4 °F 22% 30.16 in 10.0 mi Calm Calm - N/A   Clear
8:15 PM 44.6 °F - 12.2 °F 27% 30.16 in 10.0 mi Calm Calm - N/A   Clear
8:35 PM 41.0 °F - 15.8 °F 36% 30.17 in 10.0 mi Calm Calm - N/A   Clear
8:55 PM 41.0 °F - 15.8 °F 36% 30.17 in 10.0 mi Calm Calm - N/A   Clear
9:15 PM 39.2 °F - 17.6 °F 42% 30.17 in 10.0 mi Calm Calm - N/A   Clear
9:35 PM 39.2 °F - 17.6 °F 42% 30.17 in 10.0 mi Calm Calm - N/A   Clear
9:55 PM 35.6 °F - 17.6 °F 48% 30.17 in 10.0 mi Calm Calm - N/A   Clear
10:15 PM 33.8 °F 30.8 °F 19.4 °F 56% 30.17 in 10.0 mi SE 3.5 mph - N/A   Clear
10:35 PM 32.0 °F 27.5 °F 17.6 °F 55% 30.17 in 10.0 mi ESE 4.6 mph - N/A   Unknown
10:55 PM 35.6 °F 30.7 °F 15.8 °F 44% 30.17 in 10.0 mi SE 5.8 mph - N/A   Clear
11:15 PM 35.6 °F 29.9 °F 15.8 °F 44% 30.17 in 10.0 mi ESE 6.9 mph - N/A   Clear
11:35 PM 33.8 °F 29.6 °F 15.8 °F 48% 30.17 in 10.0 mi SE 4.6 mph - N/A   Clear
11:55 PM 32.0 °F 28.7 °F 17.6 °F 55% 30.17 in 10.0 mi SE 3.5 mph - N/A   Clear